| time (UTC) | temp C | wind direction | speed KPH | gust KPH | rain 1hr cm | rain 24hr cm | rain mn cm | humidity % | barometer mb |
| 20260506201522 | 8 | 138 | 0.0 | 6.4 | 0.20 | 2.08 | 1.42 | 96 | 1005.5 |
| 20260506200025 | 8 | 129 | 0.0 | 9.7 | 0.15 | 2.03 | 1.40 | 96 | 1005.4 |
| 20260506194619 | 9 | 96 | 3.2 | 11.3 | 0.18 | 2.03 | 1.40 | 96 | 1005.4 |
| 20260506193047 | 10 | 113 | 4.8 | 9.7 | 0.13 | 1.98 | 1.35 | 96 | 1005.4 |
| 20260506191551 | 11 | 135 | 3.2 | 12.9 | 0.05 | 1.91 | 1.27 | 94 | 1005.3 |
| 20260506190049 | 12 | 321 | 1.6 | 8.0 | 0.03 | 1.88 | 1.24 | 95 | 1005.2 |
| 20260506184553 | 12 | 9 | 1.6 | 8.0 | 0.00 | 1.85 | 1.22 | 95 | 1005.2 |
| 20260506183043 | 12 | 302 | 3.2 | 16.1 | 0.05 | 1.85 | 1.22 | 94 | 1005.1 |
| 20260506181540 | 12 | 283 | 4.8 | 12.9 | 0.08 | 1.85 | 1.22 | 96 | 1005.2 |
| 20260506180037 | 12 | 334 | 1.6 | 6.4 | 0.15 | 1.85 | 1.22 | 96 | 1005.6 |
| 20260506174534 | 12 | 38 | 0.0 | 4.8 | 0.20 | 1.85 | 1.22 | 97 | 1005.8 |
| 20260506173042 | 12 | 36 | 1.6 | 8.0 | 0.25 | 1.80 | 1.17 | 96 | 1006.0 |
| 20260506171535 | 11 | 308 | 1.6 | 8.0 | 0.30 | 1.75 | 1.12 | 97 | 1006.0 |
| 20260506170104 | 11 | 302 | 3.2 | 9.7 | 0.33 | 1.70 | 1.07 | 97 | 1006.0 |
| 20260506164601 | 11 | 323 | 3.2 | 11.3 | 0.33 | 1.65 | 1.02 | 97 | 1006.0 |
| 20260506163126 | 11 | 315 | 3.2 | 9.7 | 0.28 | 1.55 | 0.91 | 96 | 1006.1 |
| 20260506161554 | 11 | 26 | 3.2 | 14.5 | 0.25 | 1.42 | 0.81 | 96 | 1006.3 |
| 20260506160052 | 11 | 321 | 3.2 | 14.5 | 0.28 | 1.37 | 0.71 | 96 | 1006.6 |
| 20260506154553 | 11 | 15 | 4.8 | 11.3 | 0.28 | 1.32 | 0.69 | 96 | 1006.7 |
| 20260506153020 | 11 | 52 | 3.2 | 12.9 | 0.25 | 1.24 | 0.61 | 96 | 1006.9 |
| 20260506151519 | 11 | 69 | 1.6 | 14.5 | 0.23 | 1.19 | 0.56 | 96 | 1006.9 |
| 20260506150046 | 11 | 325 | 3.2 | 12.9 | 0.18 | 1.09 | 0.46 | 96 | 1007.1 |
| 20260506144546 | 11 | 5 | 3.2 | 14.5 | 0.15 | 1.02 | 0.38 | 96 | 1007.2 |
| 20260506143044 | 11 | 351 | 3.2 | 14.5 | 0.18 | 0.99 | 0.36 | 96 | 1007.2 |
| 20260506141543 | 11 | 299 | 1.6 | 11.3 | 0.18 | 0.97 | 0.33 | 96 | 1007.3 |
| 20260506140042 | 11 | 298 | 3.2 | 16.1 | 0.18 | 0.91 | 0.28 | 95 | 1007.3 |
| 20260506134540 | 11 | 294 | 4.8 | 12.9 | 0.18 | 0.86 | 0.23 | 96 | 1007.2 |
| 20260506133036 | 11 | 348 | 3.2 | 12.9 | 0.15 | 0.81 | 0.18 | 97 | 1007.2 |
| 20260506131537 | 11 | 311 | 1.6 | 8.0 | 0.15 | 0.79 | 0.15 | 97 | 1007.4 |
| 20260506130032 | 10 | 22 | 0.0 | 6.4 | 0.10 | 0.71 | 0.10 | 97 | 1007.6 |
| 20260506124532 | 10 | 219 | 1.6 | 6.4 | 0.05 | 0.69 | 0.05 | 96 | 1007.8 |
| 20260506123028 | 10 | 69 | 0.0 | 3.2 | 0.03 | 0.66 | 0.03 | 96 | 1007.9 |
| 20260506121527 | 11 | 68 | 1.6 | 12.9 | 0.00 | 0.64 | 0.00 | 95 | 1007.7 |
| 20260506120024 | 10 | 284 | 9.7 | 33.8 | 0.00 | 0.64 | 0.00 | 97 | 1007.7 |
| 20260506114524 | 10 | 94 | 11.3 | 19.3 | 0.00 | 0.64 | 0.00 | 96 | 1007.6 |
| 20260506113020 | 10 | 96 | 4.8 | 9.7 | 0.00 | 0.64 | 0.00 | 95 | 1008.0 |
| 20260506111526 | 10 | 190 | 3.2 | 11.3 | 0.00 | 0.64 | 0.00 | 95 | 1007.8 |
| 20260506110017 | 10 | 108 | 0.0 | 8.0 | 0.00 | 0.64 | 0.00 | 94 | 1007.7 |
| 20260506104512 | 10 | 263 | 6.4 | 12.9 | 0.00 | 0.64 | 0.00 | 92 | 1007.7 |
| 20260506103008 | 10 | 237 | 3.2 | 12.9 | 0.00 | 0.64 | 0.00 | 92 | 1007.4 |
| 20260506101504 | 10 | 237 | 4.8 | 14.5 | 0.00 | 0.64 | 0.00 | 94 | 1007.4 |
| 20260506100004 | 9 | 244 | 1.6 | 6.4 | 0.00 | 0.64 | 0.00 | 95 | 1007.9 |
| 20260506094503 | 9 | 263 | 1.6 | 4.8 | 0.00 | 0.64 | 0.00 | 95 | 1007.8 |
| 20260506093101 | 9 | 238 | 3.2 | 6.4 | 0.00 | 0.64 | 0.00 | 95 | 1007.9 |
| 20260506091556 | 10 | 236 | 3.2 | 6.4 | 0.00 | 0.64 | 0.00 | 94 | 1007.9 |
| 20260506090109 | 10 | 269 | 1.6 | 4.8 | 0.00 | 0.64 | 0.00 | 94 | 1008.3 |
| 20260506084609 | 10 | 269 | 1.6 | 4.8 | 0.00 | 0.64 | 0.00 | 95 | 1008.0 |
| 20260506083052 | 10 | 271 | 0.0 | 0.0 | 0.03 | 0.64 | 0.64 | 95 | 1008.2 |
| 20260506081549 | 10 | 154 | 1.6 | 4.8 | 0.03 | 0.64 | 0.64 | 95 | 1008.6 |
| 20260506073045 | 10 | 231 | 0.0 | 4.8 | 0.00 | 0.61 | 0.61 | 94 | 1008.2 |
| 20260506071542 | 10 | 223 | 3.2 | 6.4 | 0.00 | 0.61 | 0.61 | 94 | 1008.3 |
| 20260506061538 | 10 | 171 | 0.0 | 0.0 | 0.15 | 0.61 | 0.61 | 95 | 1008.5 |
| 20260506044522 | 12 | 254 | 0.0 | 6.4 | 0.10 | 0.28 | 0.28 | 91 | 1008.6 |
| 20260506043020 | 12 | 76 | 1.6 | 11.3 | 0.05 | 0.23 | 0.23 | 91 | 1008.9 |
| 20260506041524 | 13 | 64 | 4.8 | 12.9 | 0.00 | 0.18 | 0.18 | 88 | 1008.7 |
| 20260506040011 | 13 | 5 | 4.8 | 16.1 | 0.00 | 0.18 | 0.18 | 86 | 1008.4 |
| 20260506034511 | 13 | 115 | 4.8 | 17.7 | 0.00 | 0.18 | 0.18 | 85 | 1008.4 |
| 20260506033010 | 13 | 323 | 1.6 | 9.7 | 0.00 | 0.18 | 0.18 | 83 | 1008.1 |
| 20260506031508 | 14 | 44 | 3.2 | 6.4 | 0.00 | 0.18 | 0.18 | 83 | 1008.2 |
| 20260506030006 | 14 | 355 | 0.0 | 4.8 | 0.00 | 0.18 | 0.18 | 82 | 1007.9 |
| 20260506024507 | 14 | 340 | 1.6 | 4.8 | 0.00 | 0.18 | 0.18 | 81 | 1007.7 |
| 20260506023007 | 14 | 14 | 0.0 | 4.8 | 0.00 | 0.18 | 0.18 | 81 | 1007.8 |
| 20260506021504 | 14 | 308 | 3.2 | 6.4 | 0.00 | 0.18 | 0.18 | 80 | 1008.0 |
| 20260506020003 | 14 | 49 | 0.0 | 6.4 | 0.00 | 0.18 | 0.18 | 79 | 1008.1 |
| 20260506014502 | 14 | 331 | 0.0 | 8.0 | 0.00 | 0.18 | 0.18 | 80 | 1007.6 |
| 20260506013105 | 14 | 302 | 1.6 | 6.4 | 0.00 | 0.18 | 0.18 | 80 | 1007.4 |
| 20260506011531 | 13 | 294 | 0.0 | 6.4 | 0.00 | 0.18 | 0.18 | 80 | 1007.4 |
| 20260506010033 | 14 | 345 | 1.6 | 6.4 | 0.00 | 0.18 | 0.18 | 79 | 1007.2 |
| 20260506004604 | 14 | 305 | 1.6 | 8.0 | 0.00 | 0.18 | 0.18 | 79 | 1007.1 |
| 20260506003059 | 15 | 299 | 3.2 | 4.8 | 0.00 | 0.18 | 0.18 | 78 | 1007.0 |
| 20260506001528 | 15 | 336 | 3.2 | 6.4 | 0.00 | 0.18 | 0.18 | 78 | 1007.0 |
| 20260506000027 | 15 | 350 | 0.0 | 8.0 | 0.00 | 0.18 | 0.18 | 78 | 1007.0 |
| 20260505234558 | 15 | 88 | 1.6 | 9.7 | 0.00 | 0.18 | 0.18 | 77 | 1007.3 |
| 20260505233058 | 15 | 130 | 6.4 | 19.3 | 0.00 | 0.18 | 0.18 | 75 | 1007.4 |
| 20260505231555 | 15 | 47 | 8.0 | 17.7 | 0.00 | 0.18 | 0.18 | 76 | 1007.2 |
| 20260505230119 | 15 | 29 | 3.2 | 20.9 | 0.00 | 0.18 | 0.18 | 76 | 1006.7 |
| 20260505224553 | 15 | 117 | 8.0 | 22.5 | 0.00 | 0.18 | 0.18 | 76 | 1006.7 |
| 20260505223053 | 15 | 25 | 8.0 | 16.1 | 0.00 | 0.18 | 0.18 | 78 | 1006.6 |
| 20260505221523 | 15 | 41 | 8.0 | 17.7 | 0.00 | 0.18 | 0.18 | 78 | 1006.6 |
| 20260505220033 | 15 | 133 | 9.7 | 29.0 | 0.00 | 0.18 | 0.18 | 78 | 1006.3 |
| 20260505214522 | 15 | 113 | 8.0 | 22.5 | 0.03 | 0.18 | 0.18 | 79 | 1006.9 |
| 20260505213019 | 15 | 244 | 8.0 | 19.3 | 0.05 | 0.18 | 0.18 | 77 | 1006.4 |
| 20260505211519 | 15 | 154 | 3.2 | 12.9 | 0.05 | 0.18 | 0.18 | 81 | 1005.1 |
| 20260505210018 | 14 | 107 | 6.4 | 25.7 | 0.13 | 0.18 | 0.18 | 85 | 1004.8 |
| 20260505204549 | 14 | 49 | 9.7 | 30.6 | 0.15 | 0.15 | 0.15 | 86 | 1006.0 |
| 20260505203046 | 13 | 33 | 9.7 | 22.5 | 0.13 | 0.13 | 0.13 | 87 | 1006.4 |